Location: Spring Creek
(38.2870°N, 100.2160°W)
Time: 09:11:25
(UTC+00:00)

Spot 2 Rocket - Pass Details

Date: 08 May 2021
Orbit: 758 x 771 km, 98.5° (Epoch: 21 June)

Event Time Altitude Azimuth Distance (km) Brightness Sun altitude
Exits shadow 03:52:22 55° 123° (ESE) 917 3.5 -22.4°
Maximum altitude 03:53:15 65° 74° (ENE) 835 3.5 -22.5°
Drops below altitude 10° 03:58:15 10° 353° (N) 2,298 6.7 -23.2°
Sets 04:00:34 0° 351° (N) 3,226 7.7 -23.5°
